Location: Chevroche
(47.5455°N, 3.6802°E)
Time: 04:48:59
(UTC+00:00)

Daily predictions for brighter satellites

Satellite Brightness Start Highest point End
(mag) Time Altitude Azimuth Time Altitude Azimuth Time Altitude Azimuth
SL-16 R/B 4.1 00:12:20 29° NE 00:12:20 29° NE 00:16:25 10° N
Cosmos 1943 Rocket 4.3 00:17:17 22° N 00:17:17 22° N 00:19:26 10° NNE
Cosmos 2297 Rocket 4.2 00:25:10 10° N 00:28:49 24° NNE 00:28:49 24° NNE
Resurs 1-4 Rocket 4.4 00:33:07 10° NE 00:34:54 19° NE 00:34:54 19° NE
Cosmos 2369 Rocket 4.2 00:41:06 24° N 00:41:06 24° N 00:43:36 10° NNE
CZ-4C R/B 4.1 00:47:10 25° NNW 00:47:10 25° NNW 00:52:14 10° NNE
Cosmos 2227 Rocket 3.6 01:21:49 10° NNW 01:25:13 33° N 01:25:13 33° N
Lacrosse 5 4.3 01:32:48 14° E 01:32:48 14° E 01:34:03 10° E
USA 234 3.8 01:27:34 10° E 01:33:53 55° NNE 01:37:43 25° NW
ADEOS II 3.4 01:34:44 10° NNE 01:38:28 35° ENE 01:38:28 35° ENE
Cosmos 2181 Rocket 4.4 01:47:56 59° NNE 01:47:56 59° NNE 01:52:52 10° N
SL-16 R/B 3.8 01:57:25 30° NW 01:57:25 30° NW 02:00:31 10° NNW
ARIANE 5 R/B 3.9 01:57:10 10° NNE 02:01:41 31° E 02:01:51 31° E
IRS-1D 4.2 01:57:33 10° NNE 02:01:47 53° NE 02:01:47 53° NE
CZ-2D R/B 3.2 01:58:41 10° N 02:02:03 37° N 02:02:03 37° N
ATLAS 5 CENTAUR R/B 3.3 02:07:56 30° NNE 02:07:56 30° NNE 02:10:41 10° NNE
NPP 4.5 02:04:43 10° N 02:08:29 43° NNW 02:08:29 43° NNW
Cosmos 2297 Rocket 4.0 02:08:46 10° NNW 02:10:32 21° NW 02:10:32 21° NW
Resurs 1-4 Rocket 3.3 02:12:39 10° N 02:15:58 34° NNW 02:15:58 34° NNW
Cosmos 2082 4.0 02:13:00 10° NNW 02:18:42 66° ENE 02:20:23 45° ESE
SJ 16-02 4.2 02:25:47 10° NNE 02:28:41 17° NE 02:31:34 10° E
Cosmos 1697 Rocket 2.9 02:32:33 59° SE 02:32:58 61° ESE 02:38:31 10° NNE
ASTEX 1 4.4 02:29:58 10° NNE 02:34:44 43° E 02:36:22 32° SE
IRS-P3 4.0 02:30:05 10° NNE 02:35:28 83° ESE 02:35:28 83° ESE
Cosmos 1980 Rocket 3.4 02:35:19 29° SE 02:37:14 37° ESE 02:42:23 10° NE
H-2A R/B 4.1 02:33:35 10° ESE 02:37:18 28° ENE 02:41:06 10° N
USA 267 3.1 02:34:26 10° NE 02:41:02 88° SSE 02:42:17 62° SW
Cosmos 2263 Rocket 3.8 02:39:37 10° NNW 02:44:43 33° NE 02:49:49 10° ESE
SL-8 R/B 3.8 02:46:01 71° ENE 02:46:01 71° ENE 02:50:19 10° E
Cosmos 1818 4.1 02:46:11 46° NW 02:46:11 46° NW 02:51:25 10° NNE
USA 307 3.5 02:52:25 50° ESE 02:52:25 50° ESE 02:55:59 10° ENE
Cosmos 1821 Rocket 3.8 02:48:05 10° NNW 02:54:25 77° W 02:56:29 44° S
USA 308 3.4 02:55:23 54° ESE 02:55:23 54° ESE 02:59:05 10° ENE
Cosmos 1470 Rocket 3.6 02:51:18 10° N 02:55:25 76° N 02:55:25 76° N
Spot 4 Rocket 4.2 02:52:55 10° NNE 02:58:03 67° ESE 02:59:44 42° S
SL-24 R/B 4.2 02:59:50 78° SW 02:59:59 79° WSW 03:05:11 10° NNW
Landsat 5 4.4 03:00:49 10° SE 03:05:12 52° ENE 03:09:35 10° N
Celestis-02/Orion 38 4.4 03:01:28 10° SSE 03:06:44 72° WSW 03:11:55 10° NNW
Cosmos 1934 Rocket 3.9 03:03:22 10° N 03:09:27 84° E 03:15:32 10° S
Cosmos 1777 Rocket 3.8 03:04:50 10° NNW 03:10:02 67° WSW 03:12:06 36° S
Cosmos 1782 2.8 03:10:11 75° SE 03:10:25 79° E 03:14:28 10° NNE
Cosmos 2227 Rocket 4.2 03:06:16 10° NW 03:06:57 13° NW 03:06:57 13° NW
Cosmos 1238 Rocket 4.1 03:05:02 10° N 03:11:44 80° E 03:17:57 10° SSE
Cosmos 1656 4.1 03:12:05 40° WNW 03:12:39 41° NW 03:17:52 10° NNE
Lacrosse 5 1.8 03:12:00 61° SW 03:12:54 87° SE 03:18:00 10° NE
ADEOS Rocket 4.3 03:09:29 10° SE 03:15:52 45° ENE 03:21:41 10° N
Cosmos 1515 Rocket 3.5 03:15:07 60° SSW 03:15:55 87° W 03:20:24 10° N
USA 234 3.1 03:10:20 10° SE 03:16:50 67° SW 03:23:21 10° WNW
CZ-2C R/B 2.9 03:14:00 10° NNE 03:17:45 67° ESE 03:18:32 50° SSE
Meteor 1-20 Rocket 4.2 03:12:45 10° NNW 03:18:03 51° W 03:18:42 48° WSW
ADEOS II 2.9 03:14:39 10° N 03:19:17 32° WNW 03:19:23 32° WNW
Nadezhda 3 Rocket 4.0 03:18:39 42° SW 03:20:29 57° WNW 03:26:33 10° N
USA 276 2.6 03:21:38 59° NE 03:21:38 59° NE 03:24:23 10° ENE
Cosmos 972 Rocket 3.9 03:24:15 49° WSW 03:25:14 60° WNW 03:30:07 10° NNE
Cosmos 44 3.6 03:24:49 33° S 03:26:31 55° ESE 03:31:03 10° NE
Cosmos 1356 3.2 03:24:43 10° NNW 03:28:11 89° WSW 03:28:28 74° S
MSX 3.8 03:22:48 10° NNE 03:28:38 90° W 03:32:39 21° SSW
Cosmos 1328 Rocket 4.1 03:28:49 39° WNW 03:28:49 39° WNW 03:32:53 10° N
Timation 1 Rocket 4.2 03:23:30 10° NNW 03:29:28 68° WSW 03:35:24 10° SSE
Cosmos 921 Rocket 3.8 03:27:48 18° S 03:30:38 46° ESE 03:34:39 10° NNE
Cosmos 2278 3.6 03:28:11 33° SSW 03:30:50 84° WNW 03:36:36 10° NNE
Cosmos 1605 Rocket 4.1 03:25:49 10° N 03:32:15 83° E 03:38:40 10° S
IDEFIX/ARIANE 42P 2.6 03:27:14 10° N 03:32:25 59° WNW 03:34:28 35° SW
Cosmos 1535 Rocket 4.5 03:26:44 10° NNW 03:33:05 71° W 03:39:26 10° S
Cosmos 1933 Rocket 3.5 03:28:48 10° NNW 03:33:06 57° W 03:34:17 41° SSW
CZ-3B R/B 2.7 03:32:05 35° WNW 03:33:11 47° N 03:41:39 10° ENE
Cosmos 2228 Rocket 3.2 03:31:12 21° S 03:34:06 76° E 03:38:30 10° NNE
Cosmos 1151 Rocket 4.0 03:37:30 29° WNW 03:37:30 29° WNW 03:41:00 10° N
Cosmos 2369 4.0 03:36:40 34° WSW 03:38:51 53° WNW 03:44:29 10° NNE
ARIANE 5 R/B 3.1 03:36:09 10° N 03:40:52 39° WNW 03:42:10 33° W
CZ-2D R/B 4.2 03:41:42 10° NW 03:42:52 11° NW 03:43:22 11° NW
CZ-4C R/B 3.0 03:42:39 35° SSW 03:43:55 58° W 03:47:29 10° NNW
ALOS 4.4 03:43:25 10° NE 03:47:26 28° E 03:51:24 10° SSE
IRIDIUM 106 4.4 03:43:01 10° N 03:48:16 80° E 03:53:30 10° S
Cosmos 1536 4.5 03:47:05 10° N 03:50:55 37° ENE 03:54:43 10° SE
ATLAS 5 CENTAUR R/B 3.8 03:49:28 11° NW 03:52:00 16° NNW 03:55:06 10° NNE
Cosmos 1869 Rocket 3.4 03:47:44 10° N 03:52:07 88° W 03:56:27 10° S
Meteor 1-4 Rocket 3.0 03:52:56 10° S 03:56:20 58° E 03:59:47 10° NNE
USA 305 3.1 03:58:51 28° W 04:00:55 60° NNW 04:05:08 10° ENE
X-37B 0.8 04:01:25 37° WSW 04:02:20 53° S 04:05:27 10° ESE
USA 306 3.2 04:02:46 26° W 04:05:00 58° NNW 04:09:13 10° ENE
Cosmos 1763 Rocket 4.2 04:01:24 10° S 04:06:35 57° ESE 04:11:47 10° NNE
Cosmos 1727 Rocket 4.1 04:00:22 10° S 04:06:43 84° E 04:13:05 10° N
Cosmos 389 Rocket 3.4 04:06:11 27° W 04:06:48 29° WNW 04:09:58 10° N
SJ 16-02 1.2 04:03:22 10° NNW 04:07:44 65° WSW 04:12:04 10° S
PSLV R/B 3.4 04:05:33 10° N 04:09:45 69° WNW 04:13:54 10° SSW
Cosmos 2360 Rocket 4.3 04:06:37 10° SSE 04:11:20 28° ESE 04:16:02 10° NE
H-2A R/B 2.7 04:09:12 10° SSW 04:13:09 34° W 04:17:14 10° NNW
ASTEX 1 4.5 04:09:24 10° NNW 04:13:31 26° WNW 04:15:51 18° WSW
ERS-2 2.3 04:10:29 10° S 04:14:01 48° W 04:17:36 10° NNW
Cosmos 1697 Rocket 3.8 04:14:18 17° W 04:17:22 27° NW 04:22:08 10° N
CZ-2C R/B 2.5 04:12:19 10° N 04:17:24 68° WNW 04:22:31 10° SSW
NOSS 3-4 (A) 4.3 04:11:34 10° NW 04:18:26 66° NE 04:26:04 10° SE
NOSS 3-4 (C) 4.3 04:11:40 10° NW 04:18:32 65° NE 04:26:10 10° SE
Gbstr 26 Del rocket 4.4 04:11:02 10° WNW 04:19:08 79° SSW 04:26:15 10° SE
PAYLOAD A 3.9 04:16:20 10° N 04:20:56 54° WNW 04:25:30 10° SSW
Cosmos 1980 Rocket 2.7 04:17:07 17° WSW 04:21:10 41° NW 04:26:33 10° NNE
USA 267 3.9 04:17:34 10° NE 04:23:45 47° NNW 04:29:37 11° W
FENGYUN 3A 4.2 04:19:41 10° NNE 04:25:03 64° ESE 04:30:24 10° S
Meteor 1-10 Rocket 4.3 04:20:39 10° SSW 04:26:21 62° WNW 04:32:12 10° N
Cosmos 2322 Rocket 2.7 04:20:49 10° SSW 04:26:24 64° ESE 04:32:03 10° NNE
SJ-6F 4.4 04:22:31 10° NNE 04:26:40 86° WNW 04:30:45 10° SSW
Cosmos 990 Rocket 3.9 04:22:15 10° NNW 04:27:23 65° WSW 04:32:32 10° S
SL-8 R/B 4.0 04:24:00 14° W 04:27:57 50° SSW 04:32:33 10° SE
NOSS 3-3 (A) 3.9 04:22:36 11° SW 04:28:10 76° NW 04:34:50 10° NE
NOSS 3-3 (C) 3.9 04:22:46 11° SW 04:28:16 77° NW 04:34:54 10° NE
CZ-4C R/B 4.3 04:22:15 10° NNW 04:28:24 35° NNE 04:35:30 10° E
Cosmos 1459 Rocket 4.1 04:22:29 10° N 04:28:38 82° E 04:34:41 10° S
Cosmos 2263 Rocket 2.4 04:23:26 10° NW 04:28:50 47° WSW 04:34:14 10° S
Cosmos 1812 3.3 04:27:33 10° SW 04:31:07 36° WNW 04:34:42 10° N
Cosmos 468 Rocket 4.0 04:25:53 10° SSW 04:31:12 83° WNW 04:36:30 10° NNE
USA 307 3.5 04:28:36 14° W 04:31:58 46° NNW 04:36:05 10° ENE
SL-16 R/B 2.3 04:28:24 10° SSW 04:34:04 86° ESE 04:39:47 10° NNE
USA 308 3.6 04:31:34 13° W 04:35:05 45° NNW 04:39:12 10° ENE
Cosmos 1844 Rocket 3.7 04:30:18 10° NNW 04:35:47 50° NE 04:41:17 10° SE
COSMO-SKYMED 1 3.4 04:31:38 10° SSE 04:35:53 56° ENE 04:40:09 10° N
Cosmos 1500 4.4 04:33:00 10° NW 04:36:02 22° W 04:39:03 10° SW
SL-4 R/B 3.7 04:34:21 10° SSW 04:38:34 36° SE 04:42:57 10° ENE
Cosmos 540 Rocket 4.2 04:34:48 10° S 04:39:50 56° ESE 04:44:55 10° NNE
ATLAS CENTAUR R/B 3.7 04:31:28 10° WNW 04:41:14 49° NNE 04:45:11 10° E
Cosmos 1666 3.1 04:38:29 10° NNW 04:42:06 40° W 04:45:39 10° SSW
ATLAS 2AS CENTAUR R/B 3.1 04:34:58 10° NW 04:42:36 74° NE 04:49:33 10° SE
ERBS 2.2 04:43:01 10° SW 04:46:24 87° NW 04:49:46 10° NE
CZ-4B R/B 2.0 04:45:17 10° SSW 04:48:07 31° W 04:51:03 10° NNW
deb Chang Zheng 4 3.8 04:51:31 10° N 04:55:42 50° WNW 04:59:50 10° SW
Cosmos 1898 Rocket 3.9 04:50:56 10° NW 04:55:50 41° WSW 05:00:45 10° S
Cosmos 1908 Rocket 4.5 04:51:49 10° N 04:56:13 56° ENE 05:00:37 10° SSE
Lacrosse 5 2.9 04:51:41 10° W 04:56:20 35° NNW 05:01:00 10° NE
USA 276 2.7 04:54:31 10° WNW 04:57:41 54° N 05:00:52 10° E
Cosmos 2173 Rocket 4.1 04:52:34 10° NNW 04:58:47 61° W 05:05:02 10° S
CZ-4B R/B 2.9 04:56:08 10° NNE 04:59:52 74° ESE 05:03:28 10° S
CZ-4B R/B 4.1 04:55:44 10° N 04:59:58 67° WNW 05:04:21 10° SSW
USA 234 4.5 04:56:12 10° SSW 05:00:40 19° WSW 05:05:09 10° W
ADEOS Rocket 3.7 04:55:09 10° SSW 05:01:28 38° W 05:07:14 10° NNW
BREEZE-M DEB (TANK) 2.8 04:55:33 10° WSW 05:01:38 52° S 05:04:12 10° E
